Rockport, TX

7:34 AM CDT on May 28, 2017 (GMT -0500)
Aransas County

Weather History for KRKP - October, 2013

Change the Weather History Date:

Sunday, October 27, 2013

  Actual Average Record
Temperature  
Mean Temperature 74 °F -  
Max Temperature 82 °F 79 °F 90 °F (2007)
Min Temperature 66 °F 63 °F 45 °F (1981)
Cooling Degree Days 9    
Growing Degree Days 24 (Base 50)    
Moisture  
Dew Point 70 °F    
Average Humidity 87    
Maximum Humidity 100    
Minimum Humidity 63    
Precipitation  
Precipitation 0.03 in - - ()
Sea Level Pressure  
Sea Level Pressure 30.04 in    
Wind  
Wind Speed 3 mph (ESE)    
Max Wind Speed 12 mph    
Max Gust Speed 16 mph    
Visibility 8 miles    
Events Rain    
Averages and records for this station are not official NWS values.
T = Trace of Precipitation, MM = Missing Value Source: NWS Daily Summary

Daily Weather History Graph

Daily Weather History Graph

Search for Another Location

Airport or City:

Trip Planner

Search our weather history database for the weather conditions in past years. The results will help you decide how hot, cold, wet, or windy it might be!

Date:

Astronomy

Oct. 27, 2013 Rise Set
Actual Time 7:36 AM CDT 6:47 PM CDT
Civil Twilight 7:12 AM CDT 7:11 PM CDT
Nautical Twilight 6:44 AM CDT 7:38 PM CDT
Astronomical Twilight 6:17 AM CDT 8:06 PM CDT
Moon 1:08 AM CDT (10/27) 2:26 PM CDT (10/27)
Length of Visible Light 11h 59m
Length of Day
11h 11m
Last Quarter, 43% of the Moon is Illuminated
Oct 27
Last Quarter
Nov 3
New
Nov 9
First Quarter
Nov 17
Full
Nov 25
Last Quarter

Hourly Weather History & Observations

Time (CDT) Temp. Heat Index Dew Point Humidity Pressure Visibility Wind Dir Wind Speed Gust Speed Precip Events Conditions
12:53 AM 73.0 °F - 69.1 °F 87% 30.06 in 10.0 mi SSE 3.5 mph - N/A   Clear
1:53 AM 71.1 °F - 68.0 °F 90% 30.06 in 8.0 mi Calm Calm - N/A   Clear
2:53 AM 70.0 °F - 68.0 °F 93% 30.05 in 6.0 mi Calm Calm - N/A   Clear
3:53 AM 68.0 °F - 66.9 °F 96% 30.03 in 4.0 mi Calm Calm - N/A   Partly Cloudy
4:53 AM 69.1 °F - 68.0 °F 96% 30.04 in 6.0 mi SE 3.5 mph - N/A   Clear
5:53 AM 70.0 °F - 69.1 °F 97% 30.04 in 6.0 mi Calm Calm - N/A   Clear
6:53 AM 70.0 °F - 69.1 °F 97% 30.04 in 5.0 mi WNW 3.5 mph - N/A   Scattered Clouds
7:48 AM 66.2 °F - 66.2 °F 100% 30.05 in 2.5 mi Calm Calm - N/A   Partly Cloudy
7:53 AM 68.0 °F - 66.9 °F 96% 30.06 in 2.5 mi Calm Calm - N/A   Clear
8:11 AM 68.0 °F - 66.2 °F 94% 30.05 in 1.8 mi Calm Calm - N/A   Clear
8:19 AM 68.0 °F - 66.2 °F 94% 30.05 in 2.5 mi Calm Calm - N/A   Clear
8:27 AM 69.8 °F - 68.0 °F 94% 30.05 in 4.0 mi Calm Calm - N/A   Clear
8:53 AM 73.9 °F - 72.0 °F 93% 30.06 in 6.0 mi Calm Calm - N/A   Clear
9:53 AM 79.0 °F - 71.1 °F 77% 30.08 in 10.0 mi Calm Calm - N/A   Clear
10:53 AM 82.0 °F 85.5 °F 69.1 °F 65% 30.09 in 10.0 mi SSE 9.2 mph - N/A   Scattered Clouds
11:53 AM 82.9 °F 86.5 °F 69.1 °F 63% 30.08 in 10.0 mi Variable 4.6 mph - N/A   Overcast
12:05 PM 82.4 °F 86.3 °F 69.8 °F 66% 30.07 in 10.0 mi North 8.1 mph 16.1 mph N/A   Overcast
12:53 PM 78.1 °F - 70.0 °F 76% 30.07 in 4.0 mi SSE 4.6 mph - 0.02 in Rain Light Rain
1:53 PM 75.9 °F - 71.1 °F 85% 30.04 in 10.0 mi East 9.2 mph - 0.01 in   Overcast
2:53 PM 78.1 °F - 72.0 °F 81% 30.01 in 10.0 mi ESE 11.5 mph - N/A   Partly Cloudy
3:53 PM 79.0 °F - 71.1 °F 77% 30.00 in 10.0 mi ESE 11.5 mph - N/A   Partly Cloudy
4:53 PM 77.0 °F - 71.1 °F 82% 29.99 in 10.0 mi ESE 9.2 mph - N/A   Clear
5:53 PM 77.0 °F - 71.1 °F 82% 29.98 in 10.0 mi East 11.5 mph - N/A   Clear
6:53 PM 75.0 °F - 71.1 °F 87% 29.99 in 10.0 mi ESE 9.2 mph - N/A   Clear
7:53 PM 75.0 °F - 71.1 °F 87% 30.00 in 10.0 mi ESE 11.5 mph - N/A   Clear
8:53 PM 75.0 °F - 72.0 °F 90% 30.01 in 10.0 mi ESE 9.2 mph - N/A   Clear
9:53 PM 75.0 °F - 72.0 °F 90% 30.03 in 10.0 mi ESE 8.1 mph - N/A   Clear
10:53 PM 73.9 °F - 72.0 °F 93% 30.02 in 10.0 mi SSE 4.6 mph - N/A   Clear
11:53 PM 73.9 °F - 72.0 °F 93% 30.01 in 10.0 mi SSE 4.6 mph - N/A   Clear